Time,TemperatureF,DewpointF,PressureIn,WindDirection,WindDirectionDegrees,WindSpeedMPH,WindSpeedGustMPH,Humidity,HourlyPrecipIn,Conditions,Clouds,dailyrainin,SoftwareType,DateUTC
2013-08-04 00:04:00,66.5,60.1,27.14,North,-999,-999.0,-999.0,80,0.00,,,0.00,WSDL version 420,2013-08-04 04:04:00,
2013-08-04 00:09:00,66.5,60.1,27.14,North,-999,-999.0,-999.0,80,0.00,,,0.00,WSDL version 420,2013-08-04 04:09:00,
2013-08-04 00:14:00,66.4,60.1,27.14,North,-999,-999.0,-999.0,80,0.00,,,0.00,WSDL version 420,2013-08-04 04:14:00,
2013-08-04 00:19:00,66.3,60.0,27.14,North,-999,-999.0,-999.0,80,0.00,,,0.00,WSDL version 420,2013-08-04 04:19:00,
2013-08-04 00:24:00,66.3,60.3,27.14,North,-999,-999.0,-999.0,81,0.00,,,0.00,WSDL version 420,2013-08-04 04:24:00,
2013-08-04 00:29:00,66.3,60.4,27.14,North,-999,-999.0,-999.0,81,0.00,,,0.00,WSDL version 420,2013-08-04 04:29:00,
2013-08-04 00:34:00,66.3,60.4,27.14,North,-999,-999.0,-999.0,81,0.00,,,0.00,WSDL version 420,2013-08-04 04:34:00,
2013-08-04 00:39:00,66.3,60.4,27.14,North,-999,-999.0,-999.0,81,0.00,,,0.00,WSDL version 420,2013-08-04 04:39:00,
2013-08-04 00:44:00,66.4,60.5,27.14,North,-999,-999.0,-999.0,81,0.00,,,0.00,WSDL version 420,2013-08-04 04:44:00,
2013-08-04 00:49:00,66.5,60.5,27.14,North,-999,-999.0,-999.0,81,0.00,,,0.00,WSDL version 420,2013-08-04 04:49:00,
2013-08-04 00:54:00,66.4,60.7,27.14,North,-999,-999.0,-999.0,82,0.00,,,0.00,WSDL version 420,2013-08-04 04:54:00,
2013-08-04 00:59:00,66.3,60.7,27.14,North,-999,-999.0,-999.0,82,0.00,,,0.00,WSDL version 420,2013-08-04 04:59:00,
2013-08-04 01:04:00,66.3,60.7,27.14,North,-999,-999.0,-999.0,82,0.00,,,0.00,WSDL version 420,2013-08-04 05:04:00,
2013-08-04 01:09:00,66.4,60.8,27.14,North,-999,-999.0,-999.0,82,0.00,,,0.00,WSDL version 420,2013-08-04 05:09:00,
2013-08-04 01:14:00,66.4,60.9,27.14,North,-999,-999.0,-999.0,82,0.00,,,0.00,WSDL version 420,2013-08-04 05:14:00,
2013-08-04 01:19:00,66.3,60.7,27.14,North,-999,-999.0,-999.0,82,0.00,,,0.00,WSDL version 420,2013-08-04 05:19:00,
2013-08-04 01:24:00,66.2,60.8,27.14,North,-999,-999.0,-999.0,83,0.00,,,0.00,WSDL version 420,2013-08-04 05:24:00,
2013-08-04 01:29:00,66.3,60.7,27.14,North,-999,-999.0,-999.0,82,0.00,,,0.00,WSDL version 420,2013-08-04 05:29:00,
2013-08-04 01:34:00,66.2,60.7,27.14,North,-999,-999.0,-999.0,82,0.00,,,0.00,WSDL version 420,2013-08-04 05:34:00,
2013-08-04 01:39:00,66.1,60.9,27.14,North,-999,-999.0,-999.0,83,0.00,,,0.00,WSDL version 420,2013-08-04 05:39:00,
2013-08-04 01:44:00,66.1,60.6,27.14,North,-999,-999.0,-999.0,83,0.00,,,0.00,WSDL version 420,2013-08-04 05:44:00,
2013-08-04 01:49:00,66.0,60.7,27.14,North,-999,-999.0,-999.0,83,0.00,,,0.00,WSDL version 420,2013-08-04 05:49:00,
2013-08-04 01:54:00,65.9,60.7,27.14,North,-999,-999.0,-999.0,83,0.00,,,0.00,WSDL version 420,2013-08-04 05:54:00,
2013-08-04 01:59:00,65.9,60.7,27.14,North,-999,-999.0,-999.0,83,0.00,,,0.00,WSDL version 420,2013-08-04 05:59:00,
2013-08-04 02:04:00,65.8,60.6,27.14,North,-999,-999.0,-999.0,83,0.00,,,0.00,WSDL version 420,2013-08-04 06:04:00,
2013-08-04 02:09:00,65.7,60.5,27.14,North,-999,-999.0,-999.0,83,0.00,,,0.00,WSDL version 420,2013-08-04 06:09:00,
2013-08-04 02:14:00,65.6,60.4,27.14,North,-999,-999.0,-999.0,83,0.00,,,0.00,WSDL version 420,2013-08-04 06:14:00,
2013-08-04 02:19:00,65.6,60.4,27.14,North,-999,-999.0,-999.0,83,0.00,,,0.00,WSDL version 420,2013-08-04 06:19:00,
2013-08-04 02:24:00,65.4,60.6,27.14,North,-999,-999.0,-999.0,84,0.00,,,0.00,WSDL version 420,2013-08-04 06:24:00,
2013-08-04 02:29:00,65.5,60.7,27.11,North,-999,-999.0,-999.0,84,0.00,,,0.00,WSDL version 420,2013-08-04 06:29:00,
2013-08-04 02:34:00,65.4,60.6,27.11,North,-999,-999.0,-999.0,84,0.00,,,0.00,WSDL version 420,2013-08-04 06:34:00,
2013-08-04 02:39:00,65.7,60.9,27.11,North,-999,-999.0,-999.0,84,0.00,,,0.00,WSDL version 420,2013-08-04 06:39:00,
2013-08-04 02:44:00,65.7,60.9,27.11,North,-999,-999.0,-999.0,84,0.00,,,0.00,WSDL version 420,2013-08-04 06:44:00,
2013-08-04 02:49:00,65.6,60.8,27.11,North,-999,-999.0,-999.0,84,0.00,,,0.00,WSDL version 420,2013-08-04 06:49:00,
2013-08-04 02:54:00,65.5,60.7,27.11,North,-999,-999.0,-999.0,84,0.00,,,0.00,WSDL version 420,2013-08-04 06:54:00,
2013-08-04 02:59:00,65.6,61.0,27.11,North,-999,-999.0,-999.0,86,0.00,,,0.00,WSDL version 420,2013-08-04 06:59:00,
2013-08-04 03:04:00,65.6,61.1,27.11,North,-999,-999.0,-999.0,86,0.00,,,0.00,WSDL version 420,2013-08-04 07:04:00,
2013-08-04 03:09:00,65.5,61.1,27.11,North,-999,-999.0,-999.0,86,0.00,,,0.00,WSDL version 420,2013-08-04 07:09:00,
2013-08-04 03:14:00,65.5,61.1,27.11,North,-999,-999.0,-999.0,86,0.00,,,0.00,WSDL version 420,2013-08-04 07:14:00,
2013-08-04 03:19:00,65.4,61.0,27.11,North,-999,-999.0,-999.0,86,0.00,,,0.00,WSDL version 420,2013-08-04 07:19:00,
2013-08-04 03:24:00,65.3,60.9,27.11,North,-999,-999.0,-999.0,86,0.00,,,0.00,WSDL version 420,2013-08-04 07:24:00,
2013-08-04 03:29:00,65.2,60.8,27.11,North,-999,-999.0,-999.0,86,0.00,,,0.00,WSDL version 420,2013-08-04 07:29:00,
2013-08-04 03:34:00,65.2,60.8,27.11,North,-999,-999.0,-999.0,86,0.00,,,0.00,WSDL version 420,2013-08-04 07:34:00,
2013-08-04 03:39:00,65.2,60.8,27.11,North,-999,-999.0,-999.0,86,0.00,,,0.00,WSDL version 420,2013-08-04 07:39:00,
2013-08-04 03:44:00,65.1,60.8,27.11,North,-999,-999.0,-999.0,87,0.00,,,0.00,WSDL version 420,2013-08-04 07:44:00,
2013-08-04 03:49:00,65.0,61.0,27.11,North,-999,-999.0,-999.0,87,0.00,,,0.00,WSDL version 420,2013-08-04 07:49:00,
2013-08-04 03:54:00,65.0,60.9,27.11,North,-999,-999.0,-999.0,87,0.00,,,0.00,WSDL version 420,2013-08-04 07:54:00,
2013-08-04 03:59:00,64.9,60.9,27.11,North,-999,-999.0,-999.0,87,0.00,,,0.00,WSDL version 420,2013-08-04 07:59:00,
2013-08-04 04:04:00,64.9,60.8,27.11,North,-999,-999.0,-999.0,87,0.00,,,0.00,WSDL version 420,2013-08-04 08:04:00,
2013-08-04 04:09:00,64.8,60.8,27.11,North,-999,-999.0,-999.0,87,0.00,,,0.00,WSDL version 420,2013-08-04 08:09:00,
2013-08-04 04:14:00,64.8,60.7,27.11,North,-999,-999.0,-999.0,87,0.00,,,0.00,WSDL version 420,2013-08-04 08:14:00,
2013-08-04 04:19:00,64.7,60.6,27.11,North,-999,-999.0,-999.0,87,0.00,,,0.00,WSDL version 420,2013-08-04 08:19:00,
2013-08-04 04:24:00,64.7,60.6,27.11,North,-999,-999.0,-999.0,87,0.00,,,0.00,WSDL version 420,2013-08-04 08:24:00,
2013-08-04 04:29:00,64.7,60.6,27.11,North,-999,-999.0,-999.0,87,0.00,,,0.00,WSDL version 420,2013-08-04 08:29:00,
2013-08-04 04:34:00,64.5,60.4,27.11,North,-999,-999.0,-999.0,87,0.00,,,0.00,WSDL version 420,2013-08-04 08:34:00,
2013-08-04 04:39:00,64.5,60.4,27.11,North,-999,-999.0,-999.0,87,0.00,,,0.00,WSDL version 420,2013-08-04 08:39:00,
2013-08-04 04:44:00,64.5,60.6,27.11,North,-999,-999.0,-999.0,88,0.00,,,0.00,WSDL version 420,2013-08-04 08:44:00,
2013-08-04 04:49:00,64.5,60.8,27.11,North,-999,-999.0,-999.0,88,0.00,,,0.00,WSDL version 420,2013-08-04 08:49:00,
2013-08-04 04:54:00,64.5,60.8,27.11,North,-999,-999.0,-999.0,88,0.00,,,0.00,WSDL version 420,2013-08-04 08:54:00,
2013-08-04 04:59:00,64.5,60.8,27.11,North,-999,-999.0,-999.0,88,0.00,,,0.00,WSDL version 420,2013-08-04 08:59:00,
2013-08-04 05:04:00,64.5,60.8,27.11,North,-999,-999.0,-999.0,88,0.00,,,0.00,WSDL version 420,2013-08-04 09:04:00,
2013-08-04 05:09:00,64.6,60.9,27.11,North,-999,-999.0,-999.0,88,0.00,,,0.00,WSDL version 420,2013-08-04 09:09:00,
2013-08-04 05:14:00,64.8,61.2,27.11,North,-999,-999.0,-999.0,89,0.00,,,0.00,WSDL version 420,2013-08-04 09:14:00,
2013-08-04 05:19:00,64.9,61.5,27.11,North,-999,-999.0,-999.0,89,0.00,,,0.00,WSDL version 420,2013-08-04 09:19:00,
2013-08-04 05:24:00,65.1,61.8,27.11,North,-999,-999.0,-999.0,89,0.00,,,0.00,WSDL version 420,2013-08-04 09:24:00,
2013-08-04 05:29:00,65.4,62.0,27.11,North,-999,-999.0,-999.0,89,0.00,,,0.00,WSDL version 420,2013-08-04 09:29:00,
2013-08-04 05:34:00,65.6,62.2,27.11,North,-999,-999.0,-999.0,89,0.00,,,0.00,WSDL version 420,2013-08-04 09:34:00,
2013-08-04 05:39:00,65.8,62.4,27.11,North,-999,-999.0,-999.0,89,0.00,,,0.00,WSDL version 420,2013-08-04 09:39:00,
2013-08-04 05:44:00,65.9,62.5,27.11,North,-999,-999.0,-999.0,89,0.00,,,0.00,WSDL version 420,2013-08-04 09:44:00,
2013-08-04 05:49:00,66.0,62.4,27.11,North,-999,-999.0,-999.0,88,0.00,,,0.00,WSDL version 420,2013-08-04 09:49:00,
2013-08-04 05:54:00,66.2,62.4,27.11,North,-999,-999.0,-999.0,88,0.00,,,0.00,WSDL version 420,2013-08-04 09:54:00,
2013-08-04 05:59:00,66.1,62.3,27.11,North,-999,-999.0,-999.0,87,0.00,,,0.00,WSDL version 420,2013-08-04 09:59:00,
2013-08-04 06:04:00,66.1,62.0,27.11,North,-999,-999.0,-999.0,87,0.00,,,0.00,WSDL version 420,2013-08-04 10:04:00,
2013-08-04 06:09:00,66.2,62.1,27.11,North,-999,-999.0,-999.0,87,0.00,,,0.00,WSDL version 420,2013-08-04 10:09:00,
2013-08-04 06:14:00,66.3,62.2,27.11,North,-999,-999.0,-999.0,87,0.00,,,0.00,WSDL version 420,2013-08-04 10:14:00,
2013-08-04 06:19:00,66.4,62.3,27.11,North,-999,-999.0,-999.0,87,0.00,,,0.00,WSDL version 420,2013-08-04 10:19:00,
2013-08-04 06:24:00,66.6,62.5,27.11,North,-999,-999.0,-999.0,87,0.00,,,0.00,WSDL version 420,2013-08-04 10:24:00,
2013-08-04 06:29:00,66.8,62.7,27.11,North,-999,-999.0,-999.0,87,0.00,,,0.00,WSDL version 420,2013-08-04 10:29:00,
2013-08-04 06:34:00,66.9,62.8,27.11,North,-999,-999.0,-999.0,87,0.00,,,0.00,WSDL version 420,2013-08-04 10:34:00,
2013-08-04 06:39:00,67.0,62.8,27.11,North,-999,-999.0,-999.0,86,0.00,,,0.00,WSDL version 420,2013-08-04 10:39:00,
2013-08-04 06:44:00,67.1,62.6,27.11,North,-999,-999.0,-999.0,86,0.00,,,0.00,WSDL version 420,2013-08-04 10:44:00,
2013-08-04 06:49:00,67.2,62.7,27.11,North,-999,-999.0,-999.0,86,0.00,,,0.00,WSDL version 420,2013-08-04 10:49:00,
2013-08-04 06:54:00,67.3,62.8,27.11,North,-999,-999.0,-999.0,86,0.00,,,0.00,WSDL version 420,2013-08-04 10:54:00,
2013-08-04 06:59:00,67.5,63.0,27.11,North,-999,-999.0,-999.0,86,0.00,,,0.00,WSDL version 420,2013-08-04 10:59:00,
2013-08-04 07:04:00,67.6,62.8,27.11,North,-999,-999.0,-999.0,84,0.00,,,0.00,WSDL version 420,2013-08-04 11:04:00,
2013-08-04 07:09:00,67.6,62.7,27.11,North,-999,-999.0,-999.0,84,0.00,,,0.00,WSDL version 420,2013-08-04 11:09:00,
2013-08-04 07:14:00,67.7,62.9,27.11,North,-999,-999.0,-999.0,84,0.00,,,0.00,WSDL version 420,2013-08-04 11:14:00,
2013-08-04 07:19:00,67.9,62.9,27.11,North,-999,-999.0,-999.0,83,0.00,,,0.00,WSDL version 420,2013-08-04 11:19:00,
2013-08-04 07:24:00,68.2,62.9,27.11,North,-999,-999.0,-999.0,83,0.00,,,0.00,WSDL version 420,2013-08-04 11:24:00,
2013-08-04 07:29:00,68.4,63.2,27.11,North,-999,-999.0,-999.0,83,0.00,,,0.00,WSDL version 420,2013-08-04 11:29:00,
2013-08-04 07:34:00,68.5,62.9,27.11,North,-999,-999.0,-999.0,82,0.00,,,0.00,WSDL version 420,2013-08-04 11:34:00,
2013-08-04 07:39:00,68.6,62.9,27.11,North,-999,-999.0,-999.0,82,0.00,,,0.00,WSDL version 420,2013-08-04 11:39:00,
2013-08-04 07:44:00,68.6,63.0,27.11,North,-999,-999.0,-999.0,82,0.00,,,0.00,WSDL version 420,2013-08-04 11:44:00,
2013-08-04 07:49:00,68.6,62.8,27.11,North,-999,-999.0,-999.0,81,0.00,,,0.00,WSDL version 420,2013-08-04 11:49:00,
2013-08-04 07:54:00,68.6,62.6,27.11,North,-999,-999.0,-999.0,81,0.00,,,0.00,WSDL version 420,2013-08-04 11:54:00,
2013-08-04 07:59:00,68.6,62.6,27.11,North,-999,-999.0,-999.0,81,0.00,,,0.00,WSDL version 420,2013-08-04 11:59:00,
2013-08-04 08:04:00,68.6,62.6,27.11,North,-999,-999.0,-999.0,81,0.00,,,0.00,WSDL version 420,2013-08-04 12:04:00,
2013-08-04 08:09:00,68.6,62.6,27.11,North,-999,-999.0,-999.0,81,0.00,,,0.00,WSDL version 420,2013-08-04 12:09:00,
2013-08-04 08:14:00,68.6,62.4,27.14,North,-999,-999.0,-999.0,80,0.00,,,0.00,WSDL version 420,2013-08-04 12:14:00,
2013-08-04 08:19:00,68.7,62.3,27.14,North,-999,-999.0,-999.0,80,0.00,,,0.00,WSDL version 420,2013-08-04 12:19:00,
2013-08-04 08:24:00,68.8,62.4,27.14,North,-999,-999.0,-999.0,80,0.00,,,0.00,WSDL version 420,2013-08-04 12:24:00,
2013-08-04 08:29:00,68.8,62.4,27.14,North,-999,-999.0,-999.0,80,0.00,,,0.00,WSDL version 420,2013-08-04 12:29:00,
2013-08-04 08:34:00,68.9,62.5,27.14,North,-999,-999.0,-999.0,80,0.00,,,0.00,WSDL version 420,2013-08-04 12:34:00,
2013-08-04 08:39:00,69.3,62.8,27.14,North,-999,-999.0,-999.0,79,0.00,,,0.00,WSDL version 420,2013-08-04 12:39:00,
2013-08-04 08:44:00,69.6,62.8,27.14,North,-999,-999.0,-999.0,79,0.00,,,0.00,WSDL version 420,2013-08-04 12:44:00,
2013-08-04 08:49:00,70.0,63.2,27.14,North,-999,-999.0,-999.0,79,0.00,,,0.00,WSDL version 420,2013-08-04 12:49:00,
2013-08-04 08:54:00,70.3,63.4,27.14,North,-999,-999.0,-999.0,79,0.00,,,0.00,WSDL version 420,2013-08-04 12:54:00,
2013-08-04 08:59:00,71.0,64.0,27.14,North,-999,-999.0,-999.0,78,0.00,,,0.00,WSDL version 420,2013-08-04 12:59:00,
2013-08-04 09:04:00,71.3,63.7,27.14,North,-999,-999.0,-999.0,76,0.00,,,0.00,WSDL version 420,2013-08-04 13:04:00,
2013-08-04 09:09:00,71.4,63.1,27.14,North,-999,-999.0,-999.0,75,0.00,,,0.00,WSDL version 420,2013-08-04 13:09:00,
2013-08-04 09:14:00,71.8,63.5,27.14,North,-999,-999.0,-999.0,75,0.00,,,0.00,WSDL version 420,2013-08-04 13:14:00,
2013-08-04 09:19:00,72.3,63.6,27.14,North,-999,-999.0,-999.0,73,0.00,,,0.00,WSDL version 420,2013-08-04 13:19:00,
2013-08-04 09:24:00,72.5,62.6,27.14,North,-999,-999.0,-999.0,71,0.00,,,0.00,WSDL version 420,2013-08-04 13:24:00,
2013-08-04 09:29:00,72.8,62.8,27.14,North,-999,-999.0,-999.0,71,0.00,,,0.00,WSDL version 420,2013-08-04 13:29:00,
2013-08-04 09:34:00,73.2,63.4,27.14,North,-999,-999.0,-999.0,71,0.00,,,0.00,WSDL version 420,2013-08-04 13:34:00,
2013-08-04 09:39:00,73.4,62.9,27.14,North,-999,-999.0,-999.0,69,0.00,,,0.00,WSDL version 420,2013-08-04 13:39:00,
2013-08-04 09:44:00,72.9,61.5,27.14,North,-999,-999.0,-999.0,67,0.00,,,0.00,WSDL version 420,2013-08-04 13:44:00,
2013-08-04 09:49:00,72.2,60.7,27.14,North,-999,-999.0,-999.0,68,0.00,,,0.00,WSDL version 420,2013-08-04 13:49:00,
2013-08-04 09:54:00,71.8,60.3,27.14,North,-999,-999.0,-999.0,67,0.00,,,0.00,WSDL version 420,2013-08-04 13:54:00,
2013-08-04 09:59:00,71.8,60.5,27.14,North,-999,-999.0,-999.0,68,0.00,,,0.00,WSDL version 420,2013-08-04 13:59:00,
2013-08-04 10:04:00,72.0,60.8,27.14,North,-999,-999.0,-999.0,68,0.00,,,0.00,WSDL version 420,2013-08-04 14:04:00,
2013-08-04 10:09:00,72.2,61.2,27.14,North,-999,-999.0,-999.0,68,0.00,,,0.00,WSDL version 420,2013-08-04 14:09:00,
2013-08-04 10:14:00,72.1,61.0,27.14,North,-999,-999.0,-999.0,68,0.00,,,0.00,WSDL version 420,2013-08-04 14:14:00,
2013-08-04 10:19:00,72.2,61.0,27.14,North,-999,-999.0,-999.0,68,0.00,,,0.00,WSDL version 420,2013-08-04 14:19:00,
2013-08-04 10:24:00,72.5,61.6,27.14,North,-999,-999.0,-999.0,69,0.00,,,0.00,WSDL version 420,2013-08-04 14:24:00,
2013-08-04 10:29:00,72.5,61.3,27.14,North,-999,-999.0,-999.0,67,0.00,,,0.00,WSDL version 420,2013-08-04 14:29:00,
2013-08-04 10:34:00,72.7,61.4,27.14,North,-999,-999.0,-999.0,68,0.00,,,0.00,WSDL version 420,2013-08-04 14:34:00,
2013-08-04 10:39:00,73.2,62.2,27.14,North,-999,-999.0,-999.0,68,0.00,,,0.00,WSDL version 420,2013-08-04 14:39:00,
2013-08-04 10:44:00,73.7,62.1,27.14,North,-999,-999.0,-999.0,67,0.00,,,0.00,WSDL version 420,2013-08-04 14:44:00,
2013-08-04 10:49:00,74.1,62.5,27.14,North,-999,-999.0,-999.0,66,0.00,,,0.00,WSDL version 420,2013-08-04 14:49:00,
2013-08-04 10:54:00,74.3,61.6,27.14,North,-999,-999.0,-999.0,63,0.00,,,0.00,WSDL version 420,2013-08-04 14:54:00,
2013-08-04 10:59:00,74.5,61.7,27.14,North,-999,-999.0,-999.0,64,0.00,,,0.00,WSDL version 420,2013-08-04 14:59:00,
2013-08-04 11:04:00,74.8,62.3,27.14,North,-999,-999.0,-999.0,65,0.00,,,0.00,WSDL version 420,2013-08-04 15:04:00,
2013-08-04 11:09:00,75.0,62.1,27.14,North,-999,-999.0,-999.0,64,0.00,,,0.00,WSDL version 420,2013-08-04 15:09:00,
2013-08-04 11:15:00,75.0,61.9,27.14,North,-999,-999.0,-999.0,63,0.00,,,0.00,WSDL version 420,2013-08-04 15:15:00,
2013-08-04 11:21:00,75.3,62.0,27.14,North,-999,-999.0,-999.0,63,0.00,,,0.00,WSDL version 420,2013-08-04 15:21:00,
2013-08-04 11:26:00,75.5,61.8,27.14,North,-999,-999.0,-999.0,62,0.00,,,0.00,WSDL version 420,2013-08-04 15:26:00,
2013-08-04 11:31:00,75.8,61.7,27.14,North,-999,-999.0,-999.0,61,0.00,,,0.00,WSDL version 420,2013-08-04 15:31:00,
2013-08-04 11:36:00,76.0,61.0,27.14,North,-999,-999.0,-999.0,59,0.00,,,0.00,WSDL version 420,2013-08-04 15:36:00,
2013-08-04 11:40:00,76.2,60.8,27.14,North,-999,-999.0,-999.0,59,0.00,,,0.00,WSDL version 420,2013-08-04 15:40:00,
2013-08-04 11:46:00,76.5,59.9,27.14,North,-999,-999.0,-999.0,57,0.00,,,0.00,WSDL version 420,2013-08-04 15:46:00,
2013-08-04 11:51:00,76.7,60.2,27.14,North,-999,-999.0,-999.0,57,0.00,,,0.00,WSDL version 420,2013-08-04 15:51:00,
2013-08-04 11:56:00,76.9,59.6,27.17,North,-999,-999.0,-999.0,55,0.00,,,0.00,WSDL version 420,2013-08-04 15:56:00,
2013-08-04 12:01:00,77.1,59.4,27.17,North,-999,-999.0,-999.0,54,0.00,,,0.00,WSDL version 420,2013-08-04 16:01:00,
2013-08-04 12:06:00,77.6,59.7,27.17,North,-999,-999.0,-999.0,55,0.00,,,0.00,WSDL version 420,2013-08-04 16:06:00,
2013-08-04 12:11:00,78.0,59.9,27.14,North,-999,-999.0,-999.0,54,0.00,,,0.00,WSDL version 420,2013-08-04 16:11:00,
2013-08-04 12:16:00,78.4,60.4,27.14,North,-999,-999.0,-999.0,54,0.00,,,0.00,WSDL version 420,2013-08-04 16:16:00,
2013-08-04 12:21:00,77.9,59.4,27.14,North,-999,-999.0,-999.0,52,0.00,,,0.00,WSDL version 420,2013-08-04 16:21:00,
2013-08-04 12:26:00,77.7,59.0,27.14,North,-999,-999.0,-999.0,53,0.00,,,0.00,WSDL version 420,2013-08-04 16:26:00,
2013-08-04 12:31:00,77.6,59.0,27.14,North,-999,-999.0,-999.0,53,0.00,,,0.00,WSDL version 420,2013-08-04 16:31:00,
2013-08-04 12:36:00,77.8,59.8,27.14,North,-999,-999.0,-999.0,53,0.00,,,0.00,WSDL version 420,2013-08-04 16:36:00,
2013-08-04 12:41:00,78.5,60.5,27.17,North,-999,-999.0,-999.0,53,0.00,,,0.00,WSDL version 420,2013-08-04 16:41:00,
2013-08-04 12:46:00,78.8,59.3,27.17,North,-999,-999.0,-999.0,51,0.00,,,0.00,WSDL version 420,2013-08-04 16:46:00,
2013-08-04 12:51:00,79.4,59.9,27.17,North,-999,-999.0,-999.0,51,0.00,,,0.00,WSDL version 420,2013-08-04 16:51:00,
2013-08-04 12:56:00,80.2,61.0,27.14,North,-999,-999.0,-999.0,53,0.00,,,0.00,WSDL version 420,2013-08-04 16:56:00,
2013-08-04 13:01:00,80.7,61.4,27.14,North,-999,-999.0,-999.0,49,0.00,,,0.00,WSDL version 420,2013-08-04 17:01:00,
2013-08-04 13:05:00,80.7,59.0,27.14,North,-999,-999.0,-999.0,47,0.00,,,0.00,WSDL version 420,2013-08-04 17:05:00,
2013-08-04 13:10:00,80.7,58.7,27.14,North,-999,-999.0,-999.0,46,0.00,,,0.00,WSDL version 420,2013-08-04 17:10:00,
2013-08-04 13:16:00,80.9,58.9,27.14,North,-999,-999.0,-999.0,47,0.00,,,0.00,WSDL version 420,2013-08-04 17:16:00,
2013-08-04 13:21:00,80.9,58.2,27.14,North,-999,-999.0,-999.0,45,0.00,,,0.00,WSDL version 420,2013-08-04 17:21:00,
2013-08-04 13:26:00,80.4,58.1,27.14,North,-999,-999.0,-999.0,48,0.00,,,0.00,WSDL version 420,2013-08-04 17:26:00,
2013-08-04 13:31:00,80.1,58.0,27.14,North,-999,-999.0,-999.0,46,0.00,,,0.00,WSDL version 420,2013-08-04 17:31:00,
2013-08-04 13:35:00,79.5,57.6,27.14,North,-999,-999.0,-999.0,46,0.00,,,0.00,WSDL version 420,2013-08-04 17:35:00,
2013-08-04 13:41:00,79.1,57.8,27.17,North,-999,-999.0,-999.0,49,0.00,,,0.00,WSDL version 420,2013-08-04 17:41:00,
2013-08-04 13:46:00,79.5,58.9,27.17,North,-999,-999.0,-999.0,48,0.00,,,0.00,WSDL version 420,2013-08-04 17:46:00,
2013-08-04 13:51:00,79.5,58.0,27.17,North,-999,-999.0,-999.0,49,0.00,,,0.00,WSDL version 420,2013-08-04 17:51:00,
2013-08-04 13:56:00,79.7,57.6,27.17,North,-999,-999.0,-999.0,47,0.00,,,0.00,WSDL version 420,2013-08-04 17:56:00,
2013-08-04 14:00:00,79.7,57.8,27.17,North,-999,-999.0,-999.0,48,0.00,,,0.00,WSDL version 420,2013-08-04 18:00:00,
2013-08-04 14:06:00,80.2,58.7,27.17,North,-999,-999.0,-999.0,47,0.00,,,0.00,WSDL version 420,2013-08-04 18:06:00,
2013-08-04 14:11:00,80.3,57.2,27.14,North,-999,-999.0,-999.0,46,0.00,,,0.00,WSDL version 420,2013-08-04 18:11:00,
2013-08-04 14:16:00,80.2,56.6,27.14,North,-999,-999.0,-999.0,45,0.00,,,0.00,WSDL version 420,2013-08-04 18:16:00,
2013-08-04 14:20:00,80.0,57.7,27.14,North,-999,-999.0,-999.0,47,0.00,,,0.00,WSDL version 420,2013-08-04 18:20:00,
2013-08-04 14:26:00,80.2,57.4,27.14,North,-999,-999.0,-999.0,46,0.00,,,0.00,WSDL version 420,2013-08-04 18:26:00,
2013-08-04 14:31:00,80.5,57.6,27.14,North,-999,-999.0,-999.0,45,0.00,,,0.00,WSDL version 420,2013-08-04 18:31:00,
2013-08-04 14:36:00,80.6,58.2,27.14,North,-999,-999.0,-999.0,47,0.00,,,0.00,WSDL version 420,2013-08-04 18:36:00,
2013-08-04 14:41:00,80.6,57.4,27.14,North,-999,-999.0,-999.0,45,0.00,,,0.00,WSDL version 420,2013-08-04 18:41:00,
2013-08-04 14:46:00,80.8,57.7,27.14,North,-999,-999.0,-999.0,45,0.00,,,0.00,WSDL version 420,2013-08-04 18:46:00,
2013-08-04 14:51:00,81.0,57.9,27.14,North,-999,-999.0,-999.0,46,0.00,,,0.00,WSDL version 420,2013-08-04 18:51:00,
2013-08-04 14:56:00,81.3,58.4,27.14,North,-999,-999.0,-999.0,46,0.00,,,0.00,WSDL version 420,2013-08-04 18:56:00,
2013-08-04 15:01:00,81.5,58.4,27.14,North,-999,-999.0,-999.0,43,0.00,,,0.00,WSDL version 420,2013-08-04 19:01:00,
2013-08-04 15:06:00,81.3,57.6,27.14,North,-999,-999.0,-999.0,44,0.00,,,0.00,WSDL version 420,2013-08-04 19:06:00,
2013-08-04 15:11:00,81.2,57.3,27.14,North,-999,-999.0,-999.0,44,0.00,,,0.00,WSDL version 420,2013-08-04 19:11:00,
2013-08-04 15:16:00,81.5,57.7,27.14,North,-999,-999.0,-999.0,45,0.00,,,0.00,WSDL version 420,2013-08-04 19:16:00,
2013-08-04 15:21:00,81.7,57.9,27.14,North,-999,-999.0,-999.0,44,0.00,,,0.00,WSDL version 420,2013-08-04 19:21:00,
2013-08-04 15:26:00,81.4,57.3,27.14,North,-999,-999.0,-999.0,43,0.00,,,0.00,WSDL version 420,2013-08-04 19:26:00,
2013-08-04 15:31:00,81.0,55.6,27.14,North,-999,-999.0,-999.0,42,0.00,,,0.00,WSDL version 420,2013-08-04 19:31:00,
2013-08-04 15:35:00,80.8,55.5,27.14,North,-999,-999.0,-999.0,41,0.00,,,0.00,WSDL version 420,2013-08-04 19:35:00,
2013-08-04 15:41:00,80.4,55.1,27.14,North,-999,-999.0,-999.0,42,0.00,,,0.00,WSDL version 420,2013-08-04 19:41:00,
2013-08-04 15:46:00,80.2,55.0,27.14,North,-999,-999.0,-999.0,42,0.00,,,0.00,WSDL version 420,2013-08-04 19:46:00,
2013-08-04 15:51:00,80.2,55.3,27.14,North,-999,-999.0,-999.0,43,0.00,,,0.00,WSDL version 420,2013-08-04 19:51:00,
2013-08-04 15:56:00,80.4,56.6,27.14,North,-999,-999.0,-999.0,45,0.00,,,0.00,WSDL version 420,2013-08-04 19:56:00,
2013-08-04 16:01:00,80.5,55.8,27.14,North,-999,-999.0,-999.0,42,0.00,,,0.00,WSDL version 420,2013-08-04 20:01:00,
2013-08-04 16:06:00,80.5,55.4,27.14,North,-999,-999.0,-999.0,42,0.00,,,0.00,WSDL version 420,2013-08-04 20:06:00,
2013-08-04 16:11:00,80.7,56.0,27.14,North,-999,-999.0,-999.0,42,0.00,,,0.00,WSDL version 420,2013-08-04 20:11:00,
2013-08-04 16:16:00,80.4,55.6,27.14,North,-999,-999.0,-999.0,43,0.00,,,0.00,WSDL version 420,2013-08-04 20:16:00,
2013-08-04 16:21:00,79.9,54.7,27.14,North,-999,-999.0,-999.0,43,0.00,,,0.00,WSDL version 420,2013-08-04 20:21:00,
2013-08-04 16:25:00,80.1,55.4,27.14,North,-999,-999.0,-999.0,43,0.00,,,0.00,WSDL version 420,2013-08-04 20:25:00,
2013-08-04 16:30:00,80.2,55.9,27.14,North,-999,-999.0,-999.0,44,0.00,,,0.00,WSDL version 420,2013-08-04 20:30:00,
2013-08-04 16:36:00,79.6,54.1,27.14,North,-999,-999.0,-999.0,42,0.00,,,0.00,WSDL version 420,2013-08-04 20:36:00,
2013-08-04 16:41:00,79.4,54.6,27.14,North,-999,-999.0,-999.0,43,0.00,,,0.00,WSDL version 420,2013-08-04 20:41:00,
2013-08-04 16:46:00,79.4,54.9,27.14,North,-999,-999.0,-999.0,42,0.00,,,0.00,WSDL version 420,2013-08-04 20:46:00,
2013-08-04 16:51:00,79.1,54.3,27.14,North,-999,-999.0,-999.0,42,0.00,,,0.00,WSDL version 420,2013-08-04 20:51:00,
2013-08-04 16:56:00,79.3,54.9,27.14,North,-999,-999.0,-999.0,44,0.00,,,0.00,WSDL version 420,2013-08-04 20:56:00,
2013-08-04 17:01:00,79.5,55.4,27.14,North,-999,-999.0,-999.0,44,0.00,,,0.00,WSDL version 420,2013-08-04 21:01:00,
2013-08-04 17:06:00,79.3,55.2,27.14,North,-999,-999.0,-999.0,43,0.00,,,0.00,WSDL version 420,2013-08-04 21:06:00,
2013-08-04 17:11:00,78.9,54.2,27.14,North,-999,-999.0,-999.0,43,0.00,,,0.00,WSDL version 420,2013-08-04 21:11:00,
2013-08-04 17:16:00,78.6,54.2,27.14,North,-999,-999.0,-999.0,44,0.00,,,0.00,WSDL version 420,2013-08-04 21:16:00,
2013-08-04 17:21:00,78.1,54.2,27.14,North,-999,-999.0,-999.0,44,0.00,,,0.00,WSDL version 420,2013-08-04 21:21:00,
2013-08-04 17:26:00,77.7,54.2,27.14,North,-999,-999.0,-999.0,45,0.00,,,0.00,WSDL version 420,2013-08-04 21:26:00,
2013-08-04 17:31:00,77.6,54.9,27.14,North,-999,-999.0,-999.0,45,0.00,,,0.00,WSDL version 420,2013-08-04 21:31:00,
2013-08-04 17:36:00,77.3,53.8,27.14,North,-999,-999.0,-999.0,43,0.00,,,0.00,WSDL version 420,2013-08-04 21:36:00,
2013-08-04 17:41:00,77.2,53.5,27.14,North,-999,-999.0,-999.0,46,0.00,,,0.00,WSDL version 420,2013-08-04 21:41:00,
2013-08-04 17:46:00,76.9,53.8,27.14,North,-999,-999.0,-999.0,45,0.00,,,0.00,WSDL version 420,2013-08-04 21:46:00,
2013-08-04 17:51:00,76.8,53.6,27.14,North,-999,-999.0,-999.0,44,0.00,,,0.00,WSDL version 420,2013-08-04 21:51:00,
2013-08-04 17:56:00,76.6,55.3,27.14,North,-999,-999.0,-999.0,48,0.00,,,0.00,WSDL version 420,2013-08-04 21:56:00,
2013-08-04 18:01:00,76.4,55.3,27.14,North,-999,-999.0,-999.0,48,0.00,,,0.00,WSDL version 420,2013-08-04 22:01:00,
2013-08-04 18:05:00,76.2,54.6,27.14,North,-999,-999.0,-999.0,47,0.00,,,0.00,WSDL version 420,2013-08-04 22:05:00,
2013-08-04 18:10:00,76.1,54.0,27.14,North,-999,-999.0,-999.0,46,0.00,,,0.00,WSDL version 420,2013-08-04 22:10:00,
2013-08-04 18:16:00,75.9,53.5,27.14,North,-999,-999.0,-999.0,47,0.00,,,0.00,WSDL version 420,2013-08-04 22:16:00,
2013-08-04 18:21:00,75.5,54.0,27.14,North,-999,-999.0,-999.0,48,0.00,,,0.00,WSDL version 420,2013-08-04 22:21:00,
2013-08-04 18:25:00,75.1,54.3,27.14,North,-999,-999.0,-999.0,48,0.00,,,0.00,WSDL version 420,2013-08-04 22:25:00,
2013-08-04 18:30:00,74.9,54.2,27.14,North,-999,-999.0,-999.0,50,0.00,,,0.00,WSDL version 420,2013-08-04 22:30:00,
2013-08-04 18:35:00,74.6,54.5,27.14,North,-999,-999.0,-999.0,50,0.00,,,0.00,WSDL version 420,2013-08-04 22:35:00,
2013-08-04 18:41:00,74.4,54.6,27.14,North,-999,-999.0,-999.0,51,0.00,,,0.00,WSDL version 420,2013-08-04 22:41:00,
2013-08-04 18:45:00,74.1,54.9,27.14,North,-999,-999.0,-999.0,51,0.00,,,0.00,WSDL version 420,2013-08-04 22:45:00,
2013-08-04 18:50:00,73.9,55.1,27.14,North,-999,-999.0,-999.0,52,0.00,,,0.00,WSDL version 420,2013-08-04 22:50:00,
2013-08-04 18:56:00,73.6,54.9,27.14,North,-999,-999.0,-999.0,52,0.00,,,0.00,WSDL version 420,2013-08-04 22:56:00,
2013-08-04 19:01:00,73.4,55.5,27.14,North,-999,-999.0,-999.0,54,0.00,,,0.00,WSDL version 420,2013-08-04 23:01:00,
2013-08-04 19:06:00,73.2,55.7,27.14,North,-999,-999.0,-999.0,55,0.00,,,0.00,WSDL version 420,2013-08-04 23:06:00,
2013-08-04 19:11:00,73.0,55.7,27.14,North,-999,-999.0,-999.0,54,0.00,,,0.00,WSDL version 420,2013-08-04 23:11:00,
2013-08-04 19:16:00,72.9,55.6,27.14,North,-999,-999.0,-999.0,55,0.00,,,0.00,WSDL version 420,2013-08-04 23:16:00,
2013-08-04 19:21:00,72.6,55.9,27.14,North,-999,-999.0,-999.0,56,0.00,,,0.00,WSDL version 420,2013-08-04 23:21:00,
2013-08-04 19:26:00,72.3,55.7,27.14,North,-999,-999.0,-999.0,55,0.00,,,0.00,WSDL version 420,2013-08-04 23:26:00,
2013-08-04 19:31:00,72.1,55.1,27.14,North,-999,-999.0,-999.0,56,0.00,,,0.00,WSDL version 420,2013-08-04 23:31:00,
2013-08-04 19:36:00,72.0,55.6,27.14,North,-999,-999.0,-999.0,57,0.00,,,0.00,WSDL version 420,2013-08-04 23:36:00,
2013-08-04 19:41:00,71.7,55.5,27.14,North,-999,-999.0,-999.0,56,0.00,,,0.00,WSDL version 420,2013-08-04 23:41:00,
2013-08-04 19:46:00,71.5,55.1,27.14,North,-999,-999.0,-999.0,57,0.00,,,0.00,WSDL version 420,2013-08-04 23:46:00,
2013-08-04 19:51:00,71.2,55.2,27.14,North,-999,-999.0,-999.0,57,0.00,,,0.00,WSDL version 420,2013-08-04 23:51:00,
2013-08-04 19:56:00,70.9,54.6,27.14,North,-999,-999.0,-999.0,56,0.00,,,0.00,WSDL version 420,2013-08-04 23:56:00,
2013-08-04 20:01:00,70.7,54.3,27.14,North,-999,-999.0,-999.0,56,0.00,,,0.00,WSDL version 420,2013-08-05 00:01:00,
2013-08-04 20:05:00,70.5,54.6,27.14,North,-999,-999.0,-999.0,57,0.00,,,0.00,WSDL version 420,2013-08-05 00:05:00,
2013-08-04 20:11:00,70.4,54.2,27.14,North,-999,-999.0,-999.0,57,0.00,,,0.00,WSDL version 420,2013-08-05 00:11:00,
2013-08-04 20:16:00,70.0,54.4,27.14,North,-999,-999.0,-999.0,58,0.00,,,0.00,WSDL version 420,2013-08-05 00:16:00,
2013-08-04 20:21:00,69.7,55.0,27.14,North,-999,-999.0,-999.0,60,0.00,,,0.00,WSDL version 420,2013-08-05 00:21:00,
2013-08-04 20:26:00,69.4,55.1,27.14,North,-999,-999.0,-999.0,61,0.00,,,0.00,WSDL version 420,2013-08-05 00:26:00,
2013-08-04 20:31:00,69.1,55.1,27.14,North,-999,-999.0,-999.0,61,0.00,,,0.00,WSDL version 420,2013-08-05 00:31:00,
2013-08-04 20:35:00,68.7,55.2,27.14,North,-999,-999.0,-999.0,62,0.00,,,0.00,WSDL version 420,2013-08-05 00:35:00,
2013-08-04 20:41:00,68.5,55.2,27.14,North,-999,-999.0,-999.0,63,0.00,,,0.00,WSDL version 420,2013-08-05 00:41:00,
2013-08-04 20:46:00,68.2,55.1,27.14,North,-999,-999.0,-999.0,63,0.00,,,0.00,WSDL version 420,2013-08-05 00:46:00,
2013-08-04 20:51:00,68.0,55.0,27.14,North,-999,-999.0,-999.0,63,0.00,,,0.00,WSDL version 420,2013-08-05 00:51:00,
2013-08-04 20:55:00,67.7,55.0,27.14,North,-999,-999.0,-999.0,64,0.00,,,0.00,WSDL version 420,2013-08-05 00:55:00,
2013-08-04 21:01:00,67.5,54.7,27.14,North,-999,-999.0,-999.0,64,0.00,,,0.00,WSDL version 420,2013-08-05 01:01:00,
2013-08-04 21:05:00,67.4,54.8,27.14,North,-999,-999.0,-999.0,64,0.00,,,0.00,WSDL version 420,2013-08-05 01:05:00,
2013-08-04 21:11:00,67.2,54.8,27.14,North,-999,-999.0,-999.0,65,0.00,,,0.00,WSDL version 420,2013-08-05 01:11:00,
2013-08-04 21:15:00,67.1,54.9,27.14,North,-999,-999.0,-999.0,65,0.00,,,0.00,WSDL version 420,2013-08-05 01:15:00,
2013-08-04 21:21:00,66.9,54.7,27.14,North,-999,-999.0,-999.0,65,0.00,,,0.00,WSDL version 420,2013-08-05 01:21:00,
2013-08-04 21:26:00,66.8,55.0,27.17,North,-999,-999.0,-999.0,66,0.00,,,0.00,WSDL version 420,2013-08-05 01:26:00,
2013-08-04 21:30:00,66.7,55.0,27.17,North,-999,-999.0,-999.0,66,0.00,,,0.00,WSDL version 420,2013-08-05 01:30:00,
2013-08-04 21:35:00,66.5,55.0,27.17,North,-999,-999.0,-999.0,67,0.00,,,0.00,WSDL version 420,2013-08-05 01:35:00,
2013-08-04 21:41:00,66.4,55.1,27.17,North,-999,-999.0,-999.0,67,0.00,,,0.00,WSDL version 420,2013-08-05 01:41:00,
2013-08-04 21:45:00,66.3,55.0,27.17,North,-999,-999.0,-999.0,67,0.00,,,0.00,WSDL version 420,2013-08-05 01:45:00,
2013-08-04 21:51:00,66.2,55.2,27.17,North,-999,-999.0,-999.0,68,0.00,,,0.00,WSDL version 420,2013-08-05 01:51:00,
2013-08-04 21:56:00,66.1,55.3,27.17,North,-999,-999.0,-999.0,68,0.00,,,0.00,WSDL version 420,2013-08-05 01:56:00,
2013-08-04 22:00:00,66.0,55.2,27.17,North,-999,-999.0,-999.0,68,0.00,,,0.00,WSDL version 420,2013-08-05 02:00:00,
2013-08-04 22:05:00,65.9,55.5,27.17,North,-999,-999.0,-999.0,69,0.00,,,0.00,WSDL version 420,2013-08-05 02:05:00,
2013-08-04 22:11:00,65.9,55.5,27.17,North,-999,-999.0,-999.0,69,0.00,,,0.00,WSDL version 420,2013-08-05 02:11:00,
2013-08-04 22:16:00,65.8,55.4,27.17,North,-999,-999.0,-999.0,69,0.00,,,0.00,WSDL version 420,2013-08-05 02:16:00,
2013-08-04 22:21:00,65.8,55.6,27.17,North,-999,-999.0,-999.0,70,0.00,,,0.00,WSDL version 420,2013-08-05 02:21:00,
2013-08-04 22:25:00,65.6,55.6,27.17,North,-999,-999.0,-999.0,70,0.00,,,0.00,WSDL version 420,2013-08-05 02:25:00,
2013-08-04 22:30:00,65.6,55.5,27.17,North,-999,-999.0,-999.0,70,0.00,,,0.00,WSDL version 420,2013-08-05 02:30:00,
2013-08-04 22:36:00,65.5,55.5,27.17,North,-999,-999.0,-999.0,70,0.00,,,0.00,WSDL version 420,2013-08-05 02:36:00,
2013-08-04 22:41:00,65.4,55.6,27.17,North,-999,-999.0,-999.0,70,0.00,,,0.00,WSDL version 420,2013-08-05 02:41:00,
2013-08-04 22:45:00,65.3,55.5,27.17,North,-999,-999.0,-999.0,71,0.00,,,0.00,WSDL version 420,2013-08-05 02:45:00,
2013-08-04 22:51:00,65.2,55.6,27.17,North,-999,-999.0,-999.0,71,0.00,,,0.00,WSDL version 420,2013-08-05 02:51:00,
2013-08-04 22:55:00,65.0,55.4,27.17,North,-999,-999.0,-999.0,71,0.00,,,0.00,WSDL version 420,2013-08-05 02:55:00,
2013-08-04 23:01:00,65.0,55.4,27.17,North,-999,-999.0,-999.0,71,0.00,,,0.00,WSDL version 420,2013-08-05 03:01:00,
2013-08-04 23:06:00,65.0,55.8,27.17,North,-999,-999.0,-999.0,72,0.00,,,0.00,WSDL version 420,2013-08-05 03:06:00,
2013-08-04 23:10:00,64.9,55.6,27.17,North,-999,-999.0,-999.0,72,0.00,,,0.00,WSDL version 420,2013-08-05 03:10:00,
2013-08-04 23:16:00,64.9,55.6,27.17,North,-999,-999.0,-999.0,72,0.00,,,0.00,WSDL version 420,2013-08-05 03:16:00,
2013-08-04 23:21:00,64.7,55.5,27.17,North,-999,-999.0,-999.0,72,0.00,,,0.00,WSDL version 420,2013-08-05 03:21:00,
2013-08-04 23:25:00,64.7,55.5,27.17,North,-999,-999.0,-999.0,72,0.00,,,0.00,WSDL version 420,2013-08-05 03:25:00,
2013-08-04 23:30:00,64.7,55.4,27.17,North,-999,-999.0,-999.0,72,0.00,,,0.00,WSDL version 420,2013-08-05 03:30:00,
2013-08-04 23:36:00,64.5,55.3,27.17,North,-999,-999.0,-999.0,72,0.00,,,0.00,WSDL version 420,2013-08-05 03:36:00,
2013-08-04 23:41:00,64.5,55.3,27.17,North,-999,-999.0,-999.0,73,0.00,,,0.00,WSDL version 420,2013-08-05 03:41:00,
2013-08-04 23:46:00,64.5,55.7,27.17,North,-999,-999.0,-999.0,73,0.00,,,0.00,WSDL version 420,2013-08-05 03:46:00,
2013-08-04 23:51:00,64.5,55.7,27.17,North,-999,-999.0,-999.0,73,0.00,,,0.00,WSDL version 420,2013-08-05 03:51:00,
2013-08-04 23:55:00,64.5,55.7,27.17,North,-999,-999.0,-999.0,73,0.00,,,0.00,WSDL version 420,2013-08-05 03:55:00,